User: anonymous   Login
Location: Columbus
(29.5618°N, 96.6770°W)
Time: 19:23:39
(UTC-05:00)
Language:

Cosmos 2056 Rocket - Orbit

View from above orbital plane
View from above orbital plane
View from above satellite
View from above satellite

Ground track
Ground track

The orbit data is extracted from the following two-line orbital elements,

1 20433U 90004B   17080.70122558 +.00000018 +00000-0 +15117-4 0  9999
2 20433 074.0368 156.7681 0041991 306.3931 168.1923 14.35979243422640
Epoch (UTC): 21 March 2017 16:49:45
Eccentricity: 0.0041991
inclination: 74.0368°
perigee height: 742 km
apogee height: 802 km
right ascension of ascending node: 156.7681°
argument of perigee: 306.3931°
revolutions per day: 14.35979243
mean anomaly at epoch: 168.1923°
orbit number at epoch: 42264

The dashed part of the orbit path shows where the satellite is in the earth's shadow,  

DLR